Regional Weather Roundup
Issued by NWS Little Rock, AR

Home | Current Version | Previous Version | Text Only | Print | Product List | Glossary On
Versions: 1 2 3 4 5 6 7 8 9 10 11 12 13 14 15 16 17 18 19 20 21 22 23 24 25 26 27 28 29 30 31 32 33 34 35 36 37 38 39 40 41 42 43 44 45 46 47 48
000
ASUS44 KLZK 261105
RWRLZK

WEATHER ROUNDUP FOR ARKANSAS
NATIONAL WEATHER SERVICE LITTLE ROCK AR
500 AM CST FRI DEC 26 2014

NOTE: "FAIR" INDICATES FEW OR NO CLOUDS BELOW 12,000 FEET WITH NO
SIGNIFICANT WEATHER AND/OR OBSTRUCTIONS TO VISIBILITY.

ARZ001-003-010-029-261200-
NORTHWEST ARKANSAS

CITY           SKY/WX    TMP DP  RH WIND       PRES   REMARKS
FAYETTEVILLE   CLEAR     46  40  79 S15       29.98S
FORT SMITH     PTCLDY    39  34  82 VRB3      30.01S
HARRISON       CLEAR     42  37  82 SE12      30.01R
BENTONVILLE    CLOUDY    46  37  71 S10       29.98R
ROGERS         CLOUDY    47  40  76 S20       29.97S
SILOAM SPGS    MOCLDY    46  37  71 S14       29.97F
HIGHFILL       CLOUDY    47  40  76 S9        29.96S
$$

ARZ004-005-016-261200-
NORTH CENTRAL ARKANSAS

CITY           SKY/WX    TMP DP  RH WIND       PRES   REMARKS
BATESVILLE     PTCLDY    43  36  75 S7        30.11S
FLIPPIN        CLEAR     43  36  75 S5        30.04R
MTN HOME       CLEAR     42  37  82 S6        30.04R
$$

ARZ040-041-261200-
WEST CENTRAL ARKANSAS

CITY           SKY/WX    TMP DP  RH WIND       PRES   REMARKS
MENA           CLOUDY    52  45  76 S6        30.04S
MOUNT IDA      CLOUDY    49  42  77 MISG      30.04F
$$

ARZ009-017-025-026-028-261200-
NORTHEAST ARKANSAS

CITY           SKY/WX    TMP DP  RH WIND       PRES   REMARKS
CORNING        FAIR      41  36  81 S10       30.14R
JONESBORO      PTCLDY    37  35  92 CALM      30.15R
NEWPORT        MOCLDY    39  36  89 S8        30.14S
WALNUT RIDGE   CLEAR     39  34  81 S6        30.13R
BLYTHEVILLE    MOCLDY    40  36  86 SE8       30.18R
$$

ARZ022-023-033-042-044-261200-
CENTRAL ARKANSAS

CITY           SKY/WX    TMP DP  RH WIND       PRES   REMARKS
LITTLE ROCK    MOCLDY    41  36  82 CALM      30.13S
N LITTLE ROCK    N/A     42  39  89 S7        30.13S
JACKSONVILLE   MOCLDY    37  34  87 E1        30.12S
SEARCY         CLOUDY    41  37  86 S7        30.15R
HOT SPRINGS    CLOUDY    46  41  82 S5        30.10S
RUSSELLVILLE   PTCLDY    42  38  85 VRB3      30.07R
CLINTON        FAIR      36  34  93 CALM      30.11R
$$

ARZ036-261200-
EAST ARKANSAS

CITY           SKY/WX    TMP DP  RH WIND       PRES   REMARKS
WEST MEMPHIS   CLOUDY    42  38  85 S10       30.16F
$$

ARZ050-053-066-070-073-261200-
SOUTHWEST ARKANSAS

CITY           SKY/WX    TMP DP  RH WIND       PRES   REMARKS
ARKADELPHIA    FAIR      37  37 100 CALM      30.13S
CAMDEN         MOCLDY    41  36  81 MISG      30.14S
TEXARKANA      CLOUDY    45  42  89 SE8       30.08S
EL DORADO      MOCLDY    44  37  76 SE6       30.13F
DE QUEEN       CLOUDY    45  42  89 E5        30.06S
$$

ARZ056-057-069-261200-
SOUTHEAST ARKANSAS

CITY           SKY/WX    TMP DP  RH WIND       PRES   REMARKS
PINE BLUFF     MOCLDY    43  35  73 S10       30.15R
STUTTGART      CLOUDY    43  36  75 S10       30.14S
MONTICELLO     MOCLDY    41  35  79 S9        30.16S

$$





USA.gov is the U.S. government's official web portal to all federal, state and local government web resources and services.